Weather in Cabarete

Dominican Republic     19°45′00″N   70°24′52″W
temp.,
°C
wind,
m/s
gust,
m/s
humid.,
%
clouds,
%
prec.,
mm/h
press.,
hPa
HPBL,
m
27 november, sat
sat2723:00+24se47755 0.1 1014590
02:00+22sse46845 0.1 1013411
05:00+22s238810 0.0 1013130
08:00+23s238046 0.0 1015147
11:00+27ene23613 0.0 1016933
14:00+27ene536516 0.1 1014801
17:00+26e456745 0.1 1013777
20:00+25e357033 0.1 1015534
28 november, sun
sun2823:00+24ese357347 0.0 1015584
02:00+23ese35807 0.1 1015499
05:00+22se3583100 0.1 1015439
08:00+23sse238012 0.1 1016220
11:00+27e34615 0.0 10161105
14:00+27ene556610 0.0 1014975
17:00+26e56738 0.1 1013840
20:00+24ese478325 0.1 1015643
29 november, mon
mon2923:00+24ese368412 0.1 1015498
02:00+23sse34877 0.4 1014264
05:00+22sse23888 0.3 1013135
08:00+22s22842 0.3 1015125
11:00+27ene33625 0.0 1015769
14:00+27ne53655 0.0 1013692
17:00+27ene336824 0.0 1012721
20:00+24ese238057 0.1 1015338
30 november, tue
tue3023:00+24se238251 0.4 1015247
02:00+22s228660 1.0 101492
05:00+22ssw22875 0.1 101594
08:00+23s22805 0.1 1016133
11:00+27ene33695 0.0 1017745
14:00+27ene546953 0.0 1014853
17:00+26e457042 0.1 1014789
20:00+24e35765 0.1 1016508
1 december, wed
wed123:00+23se358497 0.0 1016434
02:00+22s338811 0.0 1016122
05:00+22s2386100 0.0 1015110
08:00+24sse238131 0.1 1017170
11:00+28e456612 0.1 1018956
14:00+27ene6775100 0.1 1015578
17:00+26e5784100 1.9 1015551
20:00+25ese4788100 2.4 1017493